Wind_Speed
10 11 11 10 7 7 8 10 9 10 11 9 8 9 8 8 6 6 5 4 3 4 5 6 8 10 12 12 11 12 12 15 16 17 18 19 19 20 17 18 18 18 20 20 19 18 18
11 12 11 11 12 10 9 8 8 9 10 10 9 9 8 7 6 6 6 5 4 6 7 9 9 10 11 13 8 12 10 13 15 17 19 20 21 20 19 20 18 19 20 19 19 21 29
15 14 14 13 13 12 11 10 9 8 9 11 10 10 10 9 8 7 7 7 7 8 9 10 10 11 11 12 7 13 9 13 15 17 18 19 20 21 20 17 22 19 22 19 23 28 30
20 18 17 17 16 16 14 12 12 10 10 10 11 11 11 10 10 9 9 8 8 9 10 11 11 11 13 8 10 13 10 11 13 15 17 18 20 19 18 21 18 25 18 33 29 27 31
23 23 21 20 21 19 18 16 15 14 12 12 12 11 11 11 12 12 11 10 10 11 11 12 13 13 10 7 13 14 10 11 13 15 16 18 20 18 23 26 21 23 29 34 30 30 34
22 25 27 26 24 24 22 21 19 18 16 16 14 13 12 11 12 13 12 13 13 14 14 14 15 8 10 15 15 14 8 9 13 15 16 17 19 17 22 23 17 25 31 32 34 36 31
27 24 26 27 27 25 25 25 23 22 21 19 19 17 14 13 13 13 14 14 13 14 13 14 16 17 17 17 16 11 7 8 12 14 16 18 17 17 20 19 20 23 27 31 33 28 39
32 27 26 26 26 27 25 26 24 23 23 24 24 21 20 17 14 14 14 15 15 16 16 18 18 19 21 19 15 9 7 9 12 12 16 19 13 18 20 19 21 24 27 31 32 37 36
32 28 30 29 29 29 28 28 25 23 22 23 25 27 25 22 20 16 16 16 17 19 21 22 18 19 20 17 10 8 5 9 14 12 17 17 12 17 19 17 21 22 22 29 32 40 37
31 28 30 32 30 31 31 29 29 26 24 21 22 24 27 25 22 20 17 17 17 17 16 15 12 10 9 8 8 7 6 11 13 12 16 12 15 19 18 16 19 25 25 27 32 34 21
29 27 30 30 31 31 33 30 32 29 27 26 24 21 23 22 21 20 18 17 14 13 5 5 7 6 7 8 6 6 8 13 13 17 16 12 14 20 16 15 19 24 24 28 35 29 25
29 28 27 32 27 30 32 32 32 30 29 29 28 24 22 19 19 17 17 15 13 5 6 4 5 6 7 9 11 11 11 15 17 16 18 11 19 15 16 16 19 18 28 26 13 8 2
30 30 33 32 26 28 30 31 31 30 32 29 31 29 24 22 19 17 15 14 6 7 3 4 6 7 9 11 12 12 16 16 13 14 12 21 9 13 14 21 18 15 20 8 6 3 5
27 28 28 34 30 25 26 28 29 30 32 29 32 32 25 24 17 21 14 12 9 6 7 8 11 12 13 13 15 16 16 12 14 10 15 11 9 11 19 20 17 17 8 0 4 3 13
35 39 34 40 37 32 37 33 32 26 29 28 32 31 29 24 20 19 17 16 7 9 11 12 17 17 15 8 8 10 12 12 5 9 6 10 8 18 19 15 17 8 11 10 9 16 9
37 43 41 42 40 35 37 34 30 27 24 26 27 29 29 22 18 20 22 24 14 16 14 9 7 5 6 8 5 6 5 7 8 10 17 10 17 13 10 20 16 12 12 7 5 4 6
34 33 32 29 29 28 29 29 26 26 24 23 22 25 26 23 24 26 31 29 26 22 16 19 18 15 14 11 6 8 7 11 15 10 16 16 15 14 21 21 19 12 13 10 8 8 4
24 24 19 18 20 20 20 19 19 21 15 15 17 20 23 22 25 32 38 35 25 19 15 19 22 22 20 20 26 26 21 13 20 21 23 21 15 22 29 11 13 18 19 20 11 5 17
17 15 9 8 8 6 9 12 11 10 12 16 16 16 17 17 23 30 33 31 28 29 30 33 23 16 12 10 12 9 6 7 16 21 15 17 10 13 15 4 4 8 12 12 18 31 35
15 14 9 4 6 4 4 4 8 12 14 15 15 12 16 17 25 23 23 25 23 19 21 19 28 29 25 27 19 15 17 15 14 19 25 25 23 25 24 29 30 38 38 38 30 24 31
15 14 13 12 7 7 7 7 7 8 18 18 15 18 18 16 16 17 20 23 14 8 16 19 24 26 20 23 25 29 26 28 24 21 21 23 29 28 32 32 32 39 39 34 32 37 29
16 16 15 16 19 16 13 8 12 12 12 19 24 19 15 16 10 17 14 20 18 14 25 24 22 19 20 22 21 25 23 22 24 22 13 22 29 28 34 34 20 29 41 39 19 19 27
16 14 14 16 17 21 22 19 14 13 16 15 18 23 23 23 22 15 19 18 15 13 17 19 24 19 19 16 21 24 25 28 33 30 27 24 26 22 26 21 33 28 6 9 16 23 22
16 16 17 16 15 16 17 19 18 16 16 19 23 23 19 23 22 19 19 21 19 18 19 18 15 20 19 22 28 32 36 37 37 38 34 37 29 24 23 27 5 6 12 24 24 19 25
17 15 16 16 15 14 15 17 19 21 20 20 22 24 27 30 31 27 25 26 22 22 24 26 22 21 20 22 24 27 31 33 28 28 35 31 34 25 18 17 32 37 16 7 15 25 12
21 20 17 16 17 16 14 14 14 16 19 22 24 27 29 31 33 29 31 29 28 30 33 32 30 25 24 23 21 21 15 19 13 9 11 24 32 34 22 7 6 12 13 15 19 15 18
25 24 22 20 19 19 18 17 16 14 14 16 19 26 31 35 37 31 32 30 32 32 34 30 30 28 21 25 27 31 33 27 23 29 31 22 19 34 29 19 23 37 20 18 8 10 17
27 25 24 24 24 25 22 21 20 19 18 17 15 19 24 31 34 31 28 35 33 31 33 30 30 30 25 22 26 27 29 31 33 38 34 27 14 23 24 15 20 11 11 12 10 15 17
24 25 27 27 28 28 26 25 25 23 22 23 21 20 21 26 30 24 23 27 29 31 32 33 36 30 13 10 20 22 29 26 29 35 31 39 38 28 30 22 16 12 12 11 17 18 15
Wind_Direction
314 316 318 318 314 306 303 304 304 307 307 305 303 302 303 301 298 298 294 296 311 315 323 327 332 337 343 349 346 354 358 4 6 8 9 7 4 1 358 349 345 341 337 332 328 320 320
287 295 300 304 304 306 304 302 305 305 301 302 303 297 292 291 291 290 287 287 294 301 305 310 321 331 337 338 334 350 349 356 1 4 7 6 4 2 357 348 350 342 337 332 332 325 324
272 274 280 286 289 293 297 296 297 300 302 302 294 291 292 287 278 273 275 279 287 292 299 305 311 320 329 330 331 345 339 349 357 358 1 3 3 359 358 -0 345 345 335 330 342 338 327
279 273 270 271 274 280 283 287 290 289 287 287 285 289 289 288 292 287 283 285 289 297 302 299 300 312 318 324 334 334 324 346 346 349 355 358 358 0 1 355 352 349 342 337 338 336 330
286 282 276 274 273 268 272 276 277 281 283 277 281 282 286 290 291 289 287 287 290 293 297 297 297 305 309 308 322 323 311 329 339 346 351 352 355 2 354 357 359 347 331 328 331 335 327
272 280 281 278 274 275 273 272 274 277 279 282 283 278 280 285 287 288 288 289 290 292 295 295 296 293 293 305 306 309 287 322 337 338 344 345 351 355 356 357 342 326 323 320 321 328 319
274 272 275 277 278 275 273 271 269 270 274 273 277 281 281 282 289 290 297 296 297 292 288 290 288 293 294 296 296 292 276 319 337 334 336 344 347 350 355 344 330 320 314 316 326 334 323
275 276 273 274 274 276 274 272 271 265 263 267 269 269 272 275 275 284 288 291 295 292 290 289 290 289 288 285 287 260 284 322 336 334 336 340 342 341 347 333 325 329 321 326 326 331 323
274 272 276 275 275 276 273 273 270 267 262 258 261 268 266 267 270 275 278 282 287 292 297 294 290 284 276 275 265 228 293 329 336 335 335 330 331 334 332 336 325 333 320 323 317 328 321
274 274 275 275 275 277 276 272 270 267 267 258 258 262 265 265 268 267 272 277 284 292 303 289 278 270 271 246 213 221 314 332 329 325 331 326 327 327 331 336 331 329 330 322 318 322 318
280 280 278 277 275 276 276 274 272 266 265 263 261 264 261 265 267 265 267 274 283 300 350 282 260 261 255 227 208 261 301 326 323 321 323 324 323 324 329 337 332 333 324 318 318 309 301
282 287 288 279 277 276 275 273 271 268 264 264 260 259 259 266 267 273 269 269 280 275 255 251 253 269 259 245 257 267 296 318 317 317 318 320 317 322 324 335 332 321 325 326 328 313 262
279 279 282 287 286 276 275 270 270 268 265 261 261 258 255 263 265 265 272 265 257 213 253 265 268 273 264 267 272 270 292 309 313 318 317 321 321 321 321 331 339 325 341 339 353 1 243
286 284 282 269 280 278 282 278 268 270 266 264 259 257 252 258 250 270 258 248 219 224 229 252 275 284 288 290 289 291 298 301 304 303 316 318 318 325 325 326 320 328 340 291 281 283 291
299 291 289 276 275 272 275 274 274 261 266 263 257 252 250 247 247 256 256 238 214 216 241 259 266 280 285 279 279 297 296 303 286 315 303 301 288 315 314 316 318 309 317 310 269 283 275
282 292 286 280 276 271 269 269 269 271 263 262 259 254 246 241 220 235 242 242 227 216 230 238 252 254 296 310 310 286 288 281 292 308 307 291 293 307 304 318 319 276 288 297 284 309 297
289 285 282 278 274 270 263 263 262 262 263 259 259 249 245 227 222 232 238 247 248 243 233 256 255 246 241 288 311 271 263 287 290 289 303 307 286 288 299 311 305 280 259 261 263 244 227
281 280 289 282 278 274 269 262 254 254 253 247 249 247 246 231 213 237 240 247 251 233 231 238 251 253 255 254 280 274 269 272 284 288 297 299 279 278 297 316 268 266 272 269 256 244 257
282 277 321 298 303 2 290 262 246 237 212 233 239 246 244 241 229 241 243 251 257 252 248 252 258 259 261 260 280 269 260 306 275 275 284 298 266 298 306 271 316 294 285 255 272 286 271
285 277 265 270 275 305 333 297 253 214 199 226 246 243 238 231 236 245 244 252 247 257 254 234 251 260 252 252 248 260 254 271 273 280 289 292 273 261 260 283 295 295 298 297 286 274 277
288 280 266 246 250 251 263 229 223 225 216 214 237 247 257 253 248 253 253 250 238 248 251 247 252 250 266 275 276 268 268 266 256 276 274 272 274 283 283 286 293 296 295 299 283 281 264
280 275 268 254 242 243 256 259 244 235 227 224 235 244 234 238 272 264 251 256 261 262 250 248 267 283 255 255 257 264 264 256 264 268 277 268 264 283 285 296 295 292 300 297 286 285 283
281 275 269 262 258 251 249 253 257 258 249 237 244 244 249 261 261 259 260 261 264 264 271 266 263 262 258 260 260 264 266 267 262 265 262 274 276 277 285 298 308 305 295 298 296 303 301
292 279 272 277 271 267 266 261 255 254 255 251 247 246 249 257 258 263 269 264 276 275 268 257 259 268 274 276 271 273 265 265 265 262 261 264 261 261 277 302 263 271 285 289 294 300 308
294 295 281 273 273 274 269 264 260 258 260 257 258 259 260 262 263 264 264 275 268 265 266 271 274 284 290 277 280 292 289 283 276 275 258 256 243 247 261 266 282 300 318 303 307 319 330
268 282 291 283 273 269 268 269 270 263 259 257 258 260 261 266 268 269 265 267 273 269 273 274 276 284 269 263 264 264 260 271 273 261 256 237 233 233 244 252 257 270 285 298 311 311 335
264 270 276 274 277 269 263 264 269 271 272 266 259 258 261 265 268 266 266 272 271 273 275 280 284 284 267 241 253 258 253 248 247 254 262 282 251 231 237 245 267 272 281 280 266 309 328
262 264 259 264 270 271 268 261 260 265 271 270 266 268 267 269 272 270 269 269 269 268 266 272 277 284 267 248 237 246 248 250 254 255 249 247 239 222 229 239 263 283 250 228 295 312 323
263 263 262 263 267 269 267 262 257 258 263 270 264 264 269 271 275 284 269 263 266 266 271 267 265 266 253 234 238 243 241 248 259 249 252 238 238 244 238 244 292 279 249 274 303 311 318
Height
3164 3164 3163 3162 3160 3159 3158 3158 3157 3157 3156 3156 3155 3154 3154 3154 3153 3153 3154 3153 3153 3153 3152 3152 3151 3150 3149 3149 3148 3145 3144 3142 3141 3139 3136 3134 3132 3130 3128 3127 3126 3124 3121 3120 3118 3115 3114
3160 3160 3161 3160 3159 3158 3157 3156 3156 3155 3155 3154 3153 3152 3151 3151 3151 3151 3151 3151 3150 3151 3150 3150 3149 3148 3147 3147 3146 3144 3143 3141 3139 3137 3135 3132 3130 3129 3127 3125 3123 3121 3118 3116 3115 3112 3107
3157 3157 3157 3156 3157 3156 3155 3154 3154 3153 3153 3153 3151 3150 3150 3149 3149 3149 3149 3149 3148 3148 3147 3147 3146 3145 3145 3145 3143 3142 3141 3139 3137 3135 3133 3131 3129 3127 3125 3123 3120 3118 3116 3115 3111 3106 3102
3155 3153 3152 3153 3152 3153 3153 3152 3152 3152 3150 3150 3149 3148 3148 3147 3147 3146 3146 3145 3145 3145 3145 3144 3144 3143 3142 3141 3141 3140 3139 3138 3136 3134 3132 3130 3128 3126 3124 3122 3119 3114 3111 3107 3107 3104 3100
3153 3152 3150 3148 3149 3148 3149 3149 3149 3149 3149 3147 3146 3145 3145 3145 3144 3143 3143 3142 3142 3141 3141 3141 3141 3140 3139 3139 3139 3137 3137 3136 3134 3132 3130 3128 3126 3123 3121 3117 3115 3111 3108 3106 3101 3101 3094
3143 3146 3147 3145 3144 3144 3143 3144 3145 3145 3145 3145 3143 3142 3142 3141 3140 3140 3140 3139 3138 3138 3138 3137 3137 3139 3137 3137 3136 3135 3134 3133 3132 3130 3129 3127 3124 3122 3119 3115 3115 3111 3106 3102 3099 3095 3089
3139 3138 3140 3140 3140 3139 3138 3138 3139 3139 3141 3140 3139 3139 3138 3138 3137 3137 3137 3136 3137 3137 3134 3134 3134 3133 3133 3133 3132 3131 3131 3131 3129 3127 3126 3123 3122 3119 3117 3114 3113 3110 3106 3099 3096 3093 3082
3134 3132 3133 3133 3133 3134 3134 3132 3133 3134 3134 3135 3134 3134 3135 3135 3133 3134 3132 3132 3132 3132 3131 3130 3130 3129 3127 3127 3128 3127 3129 3129 3127 3124 3122 3121 3118 3116 3114 3112 3109 3106 3100 3096 3088 3086 3082
3128 3126 3127 3127 3126 3127 3128 3128 3127 3127 3127 3128 3129 3129 3130 3131 3130 3131 3129 3128 3127 3126 3125 3125 3124 3123 3122 3123 3123 3124 3126 3124 3123 3121 3119 3117 3117 3114 3112 3110 3105 3103 3098 3093 3088 3080 3077
3120 3119 3120 3120 3119 3120 3121 3122 3121 3121 3122 3122 3122 3124 3124 3126 3129 3126 3125 3125 3124 3123 3121 3120 3118 3117 3118 3118 3121 3121 3121 3122 3119 3118 3116 3114 3112 3111 3108 3105 3101 3096 3094 3089 3084 3081 3075
3113 3111 3113 3114 3112 3112 3113 3114 3115 3115 3115 3116 3116 3117 3118 3120 3121 3122 3123 3122 3122 3123 3122 3118 3116 3116 3116 3119 3119 3119 3119 3117 3116 3114 3114 3112 3108 3105 3104 3102 3098 3094 3089 3084 3079 3077 3075
3106 3106 3104 3107 3104 3105 3106 3105 3106 3107 3109 3110 3110 3110 3112 3115 3115 3116 3117 3118 3120 3123 3116 3114 3113 3114 3114 3115 3115 3115 3116 3115 3113 3110 3108 3108 3105 3103 3101 3099 3096 3091 3085 3078 3075 3073 3073
3098 3097 3097 3099 3096 3098 3098 3099 3098 3099 3100 3103 3105 3104 3105 3108 3111 3111 3112 3115 3118 3116 3114 3113 3111 3111 3112 3112 3112 3112 3112 3112 3111 3107 3103 3102 3100 3099 3098 3095 3092 3089 3084 3078 3078 3076 3071
3090 3090 3090 3091 3092 3091 3091 3092 3092 3091 3093 3095 3098 3098 3099 3102 3106 3106 3109 3111 3111 3111 3110 3108 3109 3109 3110 3110 3109 3108 3107 3107 3108 3105 3102 3098 3095 3095 3094 3093 3090 3086 3086 3086 3089 3081 3064
3082 3083 3082 3083 3085 3083 3086 3086 3086 3083 3085 3086 3089 3090 3092 3096 3099 3102 3106 3105 3102 3104 3107 3107 3106 3106 3107 3107 3107 3105 3105 3104 3103 3104 3103 3098 3091 3090 3088 3088 3089 3085 3084 3083 3079 3071 3066
3075 3075 3074 3073 3073 3074 3077 3077 3077 3077 3077 3079 3082 3082 3085 3089 3094 3097 3099 3096 3098 3099 3101 3103 3103 3105 3105 3105 3105 3103 3102 3102 3101 3102 3099 3097 3090 3087 3087 3085 3085 3083 3082 3080 3078 3077 3067
3067 3065 3064 3063 3063 3064 3066 3067 3068 3070 3071 3071 3074 3075 3077 3083 3087 3089 3090 3089 3090 3095 3098 3099 3099 3100 3101 3102 3102 3101 3099 3100 3098 3098 3097 3095 3091 3086 3085 3082 3079 3081 3078 3077 3076 3074 3068
3062 3060 3059 3058 3057 3057 3058 3059 3061 3063 3066 3067 3068 3071 3074 3076 3083 3079 3080 3083 3086 3089 3090 3092 3093 3095 3097 3098 3095 3096 3095 3097 3095 3095 3093 3092 3087 3079 3076 3076 3074 3074 3073 3073 3072 3068 3062
3057 3056 3056 3055 3054 3055 3054 3055 3057 3059 3062 3063 3064 3067 3068 3071 3073 3073 3074 3076 3078 3081 3084 3084 3087 3090 3093 3094 3094 3091 3090 3091 3091 3091 3089 3088 3083 3077 3069 3072 3071 3070 3070 3069 3067 3062 3051
3052 3053 3053 3052 3052 3052 3052 3053 3054 3056 3059 3062 3064 3064 3065 3064 3067 3068 3070 3070 3072 3073 3075 3079 3082 3085 3087 3087 3089 3085 3086 3088 3087 3086 3085 3084 3078 3078 3073 3070 3070 3062 3060 3060 3061 3053 3040
3047 3048 3049 3049 3049 3050 3051 3051 3052 3053 3055 3059 3060 3060 3059 3059 3061 3064 3066 3066 3066 3068 3069 3072 3075 3079 3081 3079 3080 3078 3080 3079 3078 3079 3077 3078 3071 3071 3067 3065 3063 3056 3049 3046 3047 3040 3039
3044 3044 3044 3044 3046 3047 3049 3049 3050 3051 3051 3055 3055 3055 3056 3057 3058 3059 3059 3060 3062 3064 3065 3066 3069 3073 3074 3074 3074 3073 3072 3074 3072 3073 3072 3071 3066 3065 3059 3060 3055 3047 3040 3036 3033 3030 3027
3039 3039 3040 3041 3041 3043 3044 3046 3047 3047 3048 3049 3051 3050 3051 3052 3055 3055 3054 3055 3057 3059 3062 3062 3065 3066 3066 3069 3067 3066 3066 3066 3065 3065 3067 3067 3064 3063 3052 3054 3050 3039 3032 3031 3029 3026 3022
3035 3035 3035 3035 3036 3037 3039 3041 3042 3043 3045 3045 3046 3047 3046 3046 3049 3049 3049 3051 3053 3055 3055 3057 3060 3060 3064 3064 3060 3058 3056 3055 3056 3056 3059 3058 3059 3060 3051 3052 3046 3032 3029 3027 3025 3022 3018
3032 3031 3031 3032 3033 3033 3034 3035 3036 3037 3040 3040 3041 3042 3040 3038 3040 3042 3045 3046 3047 3049 3050 3051 3053 3055 3057 3056 3054 3049 3047 3046 3046 3046 3048 3050 3052 3052 3052 3049 3035 3025 3025 3023 3021 3017 3013
3028 3028 3028 3028 3029 3030 3031 3030 3031 3031 3032 3033 3035 3035 3034 3032 3031 3036 3038 3040 3041 3042 3043 3044 3046 3047 3048 3048 3049 3044 3043 3042 3042 3040 3039 3041 3044 3047 3047 3047 3036 3023 3023 3021 3019 3013 3011
3022 3024 3024 3025 3025 3026 3026 3026 3026 3026 3027 3028 3029 3027 3026 3024 3025 3030 3031 3033 3032 3033 3034 3038 3036 3036 3039 3039 3039 3037 3035 3037 3034 3034 3038 3037 3038 3038 3041 3040 3025 3015 3020 3019 3019 3017 3009
3016 3017 3018 3018 3019 3020 3021 3022 3022 3022 3022 3023 3023 3020 3019 3015 3014 3021 3027 3022 3024 3027 3027 3029 3029 3029 3029 3030 3029 3028 3025 3025 3024 3025 3027 3030 3032 3030 3034 3036 3027 3014 3014 3016 3014 3010 3006
3008 3009 3010 3011 3012 3013 3014 3015 3016 3016 3017 3016 3018 3016 3013 3010 3008 3013 3015 3016 3017 3018 3019 3018 3018 3021 3022 3019 3019 3018 3016 3016 3016 3014 3018 3019 3019 3023 3021 3015 3014 3013 3012 3011 3009 3008 3004